Terminal Aerodrome Forecast
Issued by NWS

Home | Current Version | Previous Version | Text Only | Print | Product List | Glossary On
Versions: 1 2 3 4 5 6 7 8 9 10 11 12 13 14 15 16 17 18 19 20 21
000
FTUS44 KMAF 232300
TAFHOB
TAF
KHOB 232321Z 2400/2424 09011G16KT P6SM SCT090
     FM240100 11008KT P6SM FEW100=

USA.gov is the U.S. government's official web portal to all federal, state and local government web resources and services.